Wind_Speed
18 16 16 16 11 8 6 6 7 7 9 8 1 7 11 7 7 4 9 12 9 11 10 10 9 9 10 7 4 3 4 5 6 7 8 10 12 14 14 14 13 11 10 9 8 7 7 8 8
17 16 14 14 13 14 9 10 4 3 3 7 5 6 5 4 8 2 11 11 11 11 10 8 6 7 8 6 4 3 3 4 5 7 9 10 11 12 13 12 11 10 8 8 7 6 7 7 8
16 15 15 14 18 22 9 13 7 3 2 5 9 7 6 7 3 6 9 7 6 7 8 8 5 2 5 5 4 3 3 4 5 7 9 10 11 11 12 11 10 9 8 7 6 5 5 6 8
16 16 16 18 17 15 19 8 9 6 5 7 7 5 7 10 9 8 6 4 2 3 3 3 4 3 3 5 5 5 4 5 5 6 8 10 11 11 11 10 10 9 8 7 5 4 4 6 8
15 16 18 18 22 19 13 17 15 8 3 9 11 5 7 7 10 8 4 3 2 1 3 4 4 3 4 5 4 4 5 6 7 7 9 9 10 11 11 10 9 9 8 7 5 2 2 5 6
15 16 15 21 19 12 15 12 14 9 4 8 10 5 6 2 5 3 0 2 4 5 5 6 6 5 5 6 6 5 6 7 8 9 10 10 11 11 10 9 9 9 8 7 6 3 1 2 3
15 17 19 19 16 15 20 13 12 11 7 5 8 11 8 6 4 2 5 6 9 5 6 6 5 5 6 7 7 7 8 9 10 11 12 12 12 13 14 13 12 11 9 8 7 5 4 1 3
22 20 21 21 20 18 11 12 9 9 9 6 11 15 11 11 11 10 9 11 9 5 5 4 3 4 5 6 7 8 9 10 12 13 14 15 15 15 15 15 14 13 13 13 11 10 10 9 7
32 29 29 22 20 18 10 19 12 7 7 4 13 17 11 15 13 10 12 10 8 6 2 1 0 1 2 4 7 8 9 10 12 14 16 17 17 17 17 16 15 14 14 14 14 13 13 13 12
29 35 34 28 23 21 16 23 15 15 9 8 12 18 13 15 13 12 12 10 10 12 9 8 7 6 6 6 5 6 7 9 11 12 14 16 17 19 20 20 19 19 18 18 18 18 16 15 14
37 39 39 34 25 16 15 15 18 15 16 15 11 16 13 15 17 16 15 13 11 11 11 11 11 10 10 10 7 8 9 8 7 9 10 13 15 18 20 21 21 21 22 19 20 21 18 16 18
40 42 38 24 25 27 27 25 21 18 16 15 15 17 18 17 15 14 13 13 13 15 15 15 16 18 17 16 13 13 12 9 11 8 11 13 15 17 18 20 22 23 24 23 23 24 22 19 20
38 38 32 30 29 26 34 32 27 28 30 23 23 20 17 18 17 17 16 16 18 18 18 20 19 20 19 21 22 17 12 12 11 12 14 14 13 15 18 19 21 23 25 26 26 27 26 25 23
30 30 28 31 27 31 31 34 29 34 19 21 31 31 27 22 19 19 19 21 22 22 24 24 23 21 19 18 20 20 17 15 16 16 16 14 12 13 15 17 20 22 24 26 28 30 29 29 28
26 17 25 32 26 26 25 29 32 27 23 24 24 23 23 22 24 24 23 23 25 26 27 29 30 30 27 22 20 22 23 22 21 17 18 18 20 20 23 24 23 23 23 26 26 30 31 32 32
19 19 19 24 23 20 21 28 25 26 29 29 23 21 22 21 23 25 27 29 31 28 29 34 33 31 31 32 26 23 23 24 24 23 23 23 23 25 25 29 26 28 28 27 23 23 24 30 33
20 14 21 22 22 17 21 19 16 19 25 28 27 28 29 26 24 23 26 28 24 18 18 18 22 26 29 29 31 30 28 27 26 25 25 24 25 28 31 31 33 35 36 33 29 27 28 25 23
17 23 18 21 22 23 23 18 18 20 20 19 21 25 33 30 27 22 23 23 21 18 17 16 16 13 15 20 25 29 28 24 21 24 27 26 29 30 33 33 32 34 37 36 35 35 34 32 32
15 15 14 21 18 19 17 16 16 18 19 16 17 19 23 17 12 15 21 23 21 20 18 14 15 18 19 19 19 18 17 19 23 24 26 31 32 29 28 33 34 33 33 33 33 34 35 37 38
20 20 22 19 19 21 22 19 12 12 15 14 16 22 22 19 16 18 18 20 21 21 21 20 16 12 17 14 13 14 16 20 24 23 21 25 26 27 28 29 32 36 40 40 40 39 39 39 41
18 19 20 20 16 18 16 23 19 15 18 18 12 16 24 23 19 20 20 19 21 24 23 24 17 16 18 14 15 17 17 18 21 24 27 29 31 32 35 38 41 42 44 44 43 43 45 45 46
16 14 15 18 18 10 10 7 18 14 17 20 18 17 22 25 25 26 25 25 25 25 25 27 23 22 23 22 20 22 22 25 26 29 30 32 33 34 36 44 50 50 50 51 49 47 45 46 47
5 7 7 12 16 16 17 11 15 13 12 16 17 22 25 26 28 31 32 30 29 24 23 27 30 28 29 28 27 27 29 29 30 30 33 35 33 37 42 45 44 45 49 49 49 48 46 46 47
11 11 7 6 11 10 17 14 9 13 16 17 20 23 24 25 27 27 30 37 37 37 31 30 33 34 33 33 33 32 30 28 30 32 33 36 39 42 45 47 45 40 40 42 43 45 46 46 47
13 8 1 1 3 5 11 14 23 17 15 17 22 25 27 28 27 21 25 26 26 28 30 32 35 38 36 35 33 31 29 29 31 34 35 37 38 39 43 45 45 40 35 33 38 38 40 44 46
13 15 8 6 4 4 10 7 7 7 12 17 20 21 22 21 21 23 21 19 24 26 27 29 34 34 30 28 27 28 29 32 34 36 38 39 37 39 39 37 37 38 36 31 30 30 32 34 37
15 19 20 13 4 2 7 11 13 17 22 26 27 20 15 13 17 20 19 14 9 8 15 18 19 19 20 22 26 28 32 35 38 40 42 40 38 34 32 28 26 25 29 30 29 28 28 29 30
15 15 8 6 5 4 4 7 12 10 15 12 7 5 6 9 7 3 2 1 3 7 12 16 19 20 22 24 28 33 36 41 44 47 45 40 38 36 36 35 33 31 29 27 27 28 31 30 29
11 14 11 10 6 5 2 5 7 11 11 12 9 4 3 5 6 7 9 12 14 15 17 19 21 22 25 32 35 40 42 44 46 48 45 43 38 37 41 41 39 37 37 35 33 33 33 32 32
12 12 15 15 6 5 3 12 9 12 17 14 8 7 12 10 11 12 13 15 16 18 19 22 26 31 36 39 40 42 44 48 47 44 42 41 42 41 44 45 47 47 46 46 46 44 43 43 39
Wind_Direction
209 212 217 223 234 233 220 199 118 84 85 73 254 180 191 230 184 266 191 166 153 128 109 95 85 82 85 91 114 143 152 152 150 153 153 153 152 150 149 144 142 139 132 124 114 107 97 85 81
211 213 217 225 227 235 228 189 115 55 47 94 141 192 200 267 249 224 187 176 162 145 132 118 107 99 92 101 123 138 155 164 162 162 162 162 160 156 153 149 146 139 131 122 116 111 101 91 91
214 212 218 222 232 233 225 212 211 307 283 167 155 194 215 185 171 145 176 175 181 163 153 143 138 149 121 122 128 147 180 187 180 176 175 174 171 164 161 159 154 148 142 135 121 106 104 93 94
214 216 217 223 228 234 231 214 221 318 135 164 160 196 210 189 150 132 122 147 192 202 178 179 163 202 234 170 176 188 206 213 203 199 195 189 182 178 175 173 168 162 158 152 144 118 119 107 104
219 221 220 228 233 233 233 237 246 291 358 165 184 187 202 176 157 160 188 226 258 261 257 252 262 258 277 270 230 217 229 241 232 215 211 210 206 194 189 189 184 178 177 174 171 144 113 134 122
229 226 224 230 232 233 239 256 247 267 322 205 205 222 171 186 177 146 74 318 276 236 219 229 247 258 270 276 270 253 241 242 245 239 227 222 217 212 208 206 203 199 196 194 196 199 59 171 146
239 237 233 235 230 216 217 250 240 251 283 258 207 231 249 243 197 153 314 325 321 258 214 206 227 245 255 263 264 256 246 239 238 240 240 236 233 226 217 212 209 210 212 213 214 218 231 248 225
248 248 243 236 235 238 220 234 230 266 287 235 215 230 259 227 254 274 298 307 304 255 214 220 251 278 280 271 264 262 258 254 249 246 244 240 237 235 233 229 227 222 219 217 216 217 221 225 230
243 249 244 242 244 237 228 225 250 260 301 242 210 211 223 236 241 248 266 281 278 277 173 148 307 286 299 302 288 277 270 263 257 255 253 248 244 241 239 237 238 238 234 230 229 233 234 235 238
243 245 246 244 252 255 241 233 265 252 241 249 222 218 232 221 234 232 241 238 242 246 255 265 282 284 279 285 298 308 307 296 285 277 272 268 263 260 255 246 236 240 237 238 237 231 236 249 253
227 236 240 247 254 252 253 222 241 258 253 257 257 233 214 217 224 213 221 233 225 235 250 260 263 256 260 270 276 291 304 295 303 298 285 276 271 269 265 261 259 251 250 242 248 247 242 242 252
228 232 240 242 254 259 256 256 238 239 243 216 208 215 208 215 225 226 227 230 236 246 258 261 268 271 273 256 262 277 287 274 295 279 284 276 271 269 267 266 266 264 265 258 249 255 249 245 248
231 233 235 241 241 237 245 253 246 232 233 211 210 194 213 217 226 235 236 239 243 251 255 258 257 265 265 264 262 265 266 275 262 266 275 273 276 277 273 268 263 262 259 262 264 261 262 259 249
233 236 235 237 235 231 236 240 241 228 216 209 207 207 216 234 242 237 243 248 248 252 261 265 266 261 257 257 261 264 261 266 271 274 260 258 274 279 285 282 273 267 265 259 258 257 257 260 260
219 223 225 228 227 229 230 234 230 229 224 225 223 231 241 243 243 248 245 246 248 253 252 253 255 264 267 260 255 258 253 257 269 268 247 257 278 275 285 283 280 282 275 271 269 270 264 261 259
207 222 231 226 220 219 227 242 234 228 231 232 238 252 251 253 255 255 258 258 259 259 258 251 252 251 252 257 262 252 246 253 261 267 261 276 279 283 282 281 282 279 273 268 270 274 274 267 263
201 217 227 225 216 221 230 244 245 240 238 246 252 253 251 251 259 253 260 257 257 265 279 269 262 259 254 253 254 260 254 256 261 264 269 276 281 282 283 280 278 279 274 270 268 265 269 270 273
198 215 218 221 216 226 243 254 254 235 252 261 268 259 254 246 255 253 246 256 254 259 281 277 269 255 241 243 244 246 249 254 260 263 275 280 279 283 281 279 280 279 271 269 269 268 267 269 267
215 216 229 234 226 237 241 264 252 251 247 275 269 250 229 223 224 240 248 252 240 252 270 293 274 263 256 255 251 252 256 261 272 282 287 291 290 288 284 280 279 283 283 278 274 272 271 269 269
229 241 241 239 240 252 259 268 259 245 252 278 278 239 234 236 239 250 264 260 250 253 267 282 295 277 270 258 257 256 262 268 275 282 288 296 299 302 301 298 295 290 285 281 278 276 278 274 271
236 243 249 251 247 255 272 272 264 262 254 261 273 229 221 234 243 249 263 260 261 259 263 270 271 269 261 270 264 264 264 269 274 279 282 288 294 296 295 294 291 286 282 281 279 276 275 276 275
243 237 247 241 251 272 259 284 264 264 261 261 255 255 231 241 247 247 253 252 256 257 262 260 259 254 258 261 267 272 268 266 263 267 274 281 282 290 295 300 298 289 282 278 277 276 275 272 272
193 209 243 235 246 257 250 260 282 265 270 273 270 258 252 253 256 252 255 259 260 263 259 259 257 256 255 258 262 262 259 257 260 265 272 277 283 289 294 299 299 292 282 278 277 275 273 271 270
203 218 211 224 230 241 246 245 287 271 273 269 273 265 263 260 273 272 266 257 256 259 258 252 251 255 257 259 257 254 255 257 262 268 270 273 286 294 299 302 300 296 283 275 274 274 275 275 273
209 205 113 229 200 226 228 242 259 265 264 266 271 277 279 283 283 284 270 256 254 251 251 250 243 248 250 251 253 257 262 266 267 269 276 287 296 301 305 305 302 297 294 285 276 275 275 273 271
234 226 190 196 200 233 214 238 238 210 248 265 276 283 286 283 281 283 293 282 254 245 243 240 239 241 246 254 259 263 266 271 276 282 291 298 303 308 307 302 299 300 299 296 290 283 278 274 273
216 217 230 223 152 176 223 240 251 263 273 282 285 287 271 267 286 296 302 287 253 266 250 249 252 254 255 258 262 271 279 284 290 294 295 297 305 304 308 297 293 305 309 306 298 290 283 279 275
216 218 172 184 142 217 250 239 231 259 278 262 224 250 299 303 310 316 329 274 239 238 240 244 250 257 265 271 277 282 287 291 295 295 297 299 301 297 306 300 292 296 302 299 297 302 298 290 282
196 196 213 233 222 172 175 252 246 211 221 203 190 170 185 185 214 259 254 234 233 238 246 254 259 264 270 279 284 288 291 293 292 295 297 299 298 296 302 304 300 299 297 296 293 292 292 289 284
226 224 228 225 202 202 201 242 254 241 227 217 227 223 222 236 237 238 239 247 240 244 256 268 274 274 279 281 281 282 283 285 290 289 289 291 294 293 297 298 301 300 298 298 297 295 293 291 284
Height
3156 3158 3160 3162 3168 3164 3164 3166 3165 3165 3165 3164 3165 3165 3167 3168 3168 3171 3168 3168 3169 3170 3170 3170 3172 3173 3173 3174 3176 3178 3178 3180 3181 3182 3183 3184 3186 3187 3188 3189 3191 3193 3194 3195 3196 3197 3197 3197 3196
3152 3155 3157 3159 3161 3161 3163 3163 3164 3163 3164 3163 3165 3167 3168 3168 3168 3167 3168 3169 3169 3170 3170 3171 3173 3174 3174 3176 3178 3179 3180 3181 3182 3183 3184 3186 3187 3188 3190 3192 3193 3195 3196 3197 3198 3198 3198 3198 3198
3149 3152 3155 3155 3155 3156 3161 3162 3163 3163 3162 3162 3163 3166 3167 3168 3168 3167 3169 3169 3171 3171 3171 3171 3173 3175 3175 3177 3178 3180 3181 3182 3183 3184 3185 3186 3188 3190 3192 3193 3195 3196 3197 3198 3199 3199 3200 3200 3200
3146 3149 3151 3150 3151 3155 3158 3160 3161 3161 3161 3160 3162 3164 3166 3167 3167 3168 3169 3170 3171 3172 3172 3173 3173 3175 3177 3177 3178 3180 3182 3183 3184 3185 3186 3187 3189 3190 3192 3193 3195 3197 3198 3199 3199 3200 3200 3201 3202
3142 3145 3146 3146 3148 3152 3155 3157 3158 3159 3159 3159 3161 3163 3164 3166 3167 3168 3169 3170 3171 3171 3172 3173 3175 3176 3178 3179 3180 3181 3182 3184 3185 3185 3187 3188 3190 3190 3192 3193 3195 3197 3198 3199 3200 3201 3201 3202 3203
3140 3141 3141 3142 3145 3150 3152 3155 3156 3158 3158 3158 3160 3162 3163 3164 3166 3167 3168 3169 3170 3170 3170 3172 3174 3176 3178 3180 3181 3182 3183 3184 3185 3186 3187 3188 3190 3192 3193 3195 3196 3198 3199 3200 3201 3202 3203 3203 3204
3135 3137 3138 3140 3143 3147 3150 3153 3154 3155 3156 3156 3157 3159 3162 3163 3164 3164 3166 3167 3168 3169 3170 3172 3173 3175 3177 3179 3181 3182 3182 3183 3184 3185 3187 3188 3189 3191 3192 3193 3195 3197 3199 3200 3201 3202 3203 3203 3203
3132 3134 3134 3137 3140 3144 3148 3151 3151 3153 3153 3154 3154 3157 3159 3161 3162 3163 3164 3165 3167 3168 3170 3171 3173 3175 3177 3178 3180 3181 3182 3183 3184 3185 3187 3188 3189 3190 3192 3193 3195 3196 3197 3198 3199 3200 3201 3201 3201
3127 3130 3130 3133 3136 3141 3144 3147 3149 3150 3150 3150 3151 3154 3157 3158 3160 3162 3163 3165 3166 3168 3169 3171 3173 3174 3176 3178 3179 3180 3181 3182 3183 3185 3186 3186 3188 3189 3190 3192 3194 3196 3197 3197 3198 3199 3200 3200 3201
3123 3123 3125 3130 3134 3137 3141 3144 3147 3148 3150 3149 3150 3152 3154 3156 3158 3160 3162 3164 3166 3167 3168 3170 3172 3174 3175 3176 3177 3178 3179 3181 3182 3184 3185 3186 3188 3189 3190 3190 3189 3191 3193 3195 3196 3195 3196 3200 3201
3119 3116 3121 3124 3131 3134 3137 3141 3145 3143 3145 3147 3149 3150 3152 3154 3155 3157 3159 3161 3163 3164 3166 3168 3170 3172 3174 3175 3176 3177 3178 3179 3180 3182 3183 3184 3186 3187 3188 3189 3190 3191 3192 3191 3194 3195 3195 3195 3198
3114 3114 3118 3123 3127 3129 3133 3135 3138 3139 3142 3144 3146 3148 3149 3150 3152 3153 3155 3157 3160 3162 3163 3165 3167 3169 3171 3173 3174 3175 3177 3178 3179 3179 3180 3181 3182 3183 3185 3186 3188 3189 3190 3190 3189 3192 3192 3193 3194
3110 3113 3119 3123 3125 3126 3127 3129 3131 3134 3138 3141 3143 3145 3147 3147 3148 3150 3152 3153 3155 3157 3159 3161 3163 3165 3168 3170 3171 3173 3174 3176 3176 3177 3177 3178 3179 3179 3180 3181 3182 3183 3184 3186 3187 3188 3189 3190 3189
3107 3110 3112 3114 3118 3119 3123 3125 3125 3129 3134 3136 3138 3140 3143 3145 3146 3147 3148 3150 3152 3154 3155 3156 3158 3161 3163 3165 3168 3169 3170 3172 3173 3174 3174 3175 3175 3176 3177 3177 3177 3178 3178 3179 3180 3181 3182 3184 3185
3105 3107 3106 3109 3113 3113 3118 3118 3117 3125 3130 3132 3134 3135 3137 3139 3141 3143 3146 3147 3149 3151 3153 3155 3156 3157 3158 3160 3163 3164 3165 3166 3168 3170 3170 3170 3171 3172 3172 3172 3173 3173 3173 3174 3175 3176 3176 3177 3178
3100 3103 3103 3105 3109 3112 3114 3112 3118 3123 3124 3126 3128 3130 3132 3134 3136 3139 3139 3141 3144 3145 3146 3147 3149 3152 3155 3156 3158 3159 3160 3162 3163 3164 3165 3165 3166 3166 3166 3168 3167 3168 3168 3168 3167 3168 3170 3170 3171
3094 3097 3099 3102 3104 3108 3109 3110 3114 3117 3119 3120 3121 3123 3125 3128 3130 3132 3135 3135 3137 3139 3139 3139 3141 3144 3147 3150 3152 3153 3155 3156 3159 3159 3159 3159 3160 3160 3160 3162 3162 3162 3162 3162 3161 3162 3163 3163 3163
3089 3094 3095 3097 3102 3102 3102 3103 3107 3111 3112 3114 3115 3116 3118 3121 3124 3127 3129 3129 3131 3134 3135 3135 3137 3138 3140 3142 3144 3147 3149 3151 3153 3153 3153 3155 3155 3154 3153 3154 3155 3154 3154 3155 3155 3155 3156 3156 3156
3087 3089 3091 3094 3097 3096 3097 3098 3101 3105 3106 3108 3108 3111 3113 3116 3119 3122 3123 3124 3125 3128 3130 3132 3132 3133 3134 3136 3139 3141 3144 3145 3146 3146 3146 3146 3147 3146 3146 3147 3147 3147 3147 3147 3148 3148 3147 3148 3148
3083 3085 3086 3090 3092 3093 3093 3094 3097 3098 3099 3102 3104 3106 3109 3111 3114 3116 3118 3120 3121 3124 3125 3127 3128 3129 3130 3131 3133 3136 3138 3139 3140 3140 3139 3139 3139 3138 3138 3140 3140 3139 3138 3138 3140 3140 3139 3139 3139
3080 3081 3084 3087 3089 3089 3089 3087 3091 3094 3095 3099 3101 3101 3103 3106 3107 3109 3111 3113 3115 3117 3120 3122 3123 3125 3126 3128 3129 3130 3132 3133 3133 3133 3133 3132 3131 3131 3132 3130 3130 3130 3128 3127 3128 3128 3129 3129 3128
3078 3081 3084 3086 3087 3088 3089 3085 3087 3092 3094 3095 3097 3098 3098 3100 3101 3103 3104 3106 3108 3111 3114 3116 3118 3119 3121 3122 3123 3124 3125 3126 3127 3128 3128 3127 3127 3126 3123 3121 3118 3115 3115 3114 3115 3117 3118 3118 3118
3077 3079 3080 3082 3083 3085 3087 3088 3083 3086 3088 3091 3092 3093 3094 3096 3096 3097 3098 3100 3102 3104 3106 3109 3111 3113 3115 3116 3117 3117 3118 3119 3121 3122 3122 3121 3120 3118 3116 3113 3109 3105 3102 3101 3101 3103 3105 3106 3106
3074 3076 3078 3079 3081 3080 3082 3084 3077 3081 3083 3085 3087 3088 3089 3089 3090 3090 3091 3092 3094 3096 3098 3100 3103 3105 3107 3109 3111 3112 3112 3113 3114 3114 3115 3114 3111 3107 3104 3102 3099 3095 3091 3090 3089 3090 3091 3093 3093
3070 3071 3075 3079 3080 3077 3078 3079 3075 3079 3079 3080 3082 3083 3083 3083 3083 3083 3084 3084 3085 3087 3089 3091 3094 3098 3101 3103 3104 3105 3107 3107 3107 3107 3106 3105 3101 3098 3095 3092 3088 3085 3082 3080 3080 3080 3081 3081 3082
3065 3068 3070 3077 3078 3074 3074 3071 3071 3074 3076 3077 3077 3077 3076 3077 3077 3077 3078 3077 3078 3079 3081 3084 3088 3091 3095 3098 3098 3099 3099 3098 3098 3097 3096 3095 3093 3089 3085 3083 3079 3076 3073 3072 3072 3071 3071 3071 3071
3061 3063 3068 3068 3070 3072 3070 3069 3071 3071 3072 3072 3071 3071 3072 3072 3071 3071 3071 3071 3072 3075 3079 3083 3086 3088 3090 3091 3091 3092 3092 3090 3089 3088 3086 3086 3083 3079 3077 3074 3072 3070 3067 3065 3063 3063 3062 3062 3062
3058 3061 3063 3064 3069 3072 3065 3066 3066 3067 3067 3067 3067 3069 3069 3069 3069 3069 3068 3070 3073 3076 3079 3080 3081 3082 3084 3085 3085 3084 3084 3082 3079 3077 3077 3076 3074 3071 3069 3067 3065 3062 3059 3058 3057 3055 3054 3054 3053
3055 3055 3057 3060 3061 3063 3067 3062 3062 3062 3063 3064 3066 3067 3067 3066 3066 3068 3069 3070 3071 3073 3074 3075 3075 3076 3077 3077 3076 3074 3073 3072 3071 3069 3067 3066 3064 3062 3060 3058 3055 3053 3050 3048 3047 3047 3046 3045 3045
3049 3051 3052 3055 3059 3059 3059 3058 3059 3060 3062 3062 3063 3063 3061 3063 3064 3064 3065 3066 3067 3068 3068 3068 3068 3068 3068 3067 3066 3065 3064 3063 3061 3058 3057 3056 3053 3052 3050 3047 3044 3042 3039 3037 3035 3034 3034 3032 3033